DW0809 Weather Reports


Display with metric or nautical units.
time (UTC)temp
F
wind
direction
speed
MPH
gust
MPH
rain 1hr
in
rain 24hr
in
rain mn
in
humidity
%
barometer
mb
20260506111516 42 0.0 0.0 0.00 0.00 0.00 58 1018.7
20260506110516 42 0.0 0.0 0.00 0.00 0.00 58 1018.7
20260506105517 42 0.0 0.0 0.00 0.00 0.00 57 1018.8
20260506104516 43 0.0 0.0 0.00 0.00 0.00 56 1018.7
20260506103637 43 0.0 0.0 0.00 0.00 0.00 55 1018.8
20260506102516 43 0.0 0.0 0.00 0.00 0.00 55 1018.7
20260506101516 44 0.0 0.0 0.00 0.00 0.00 54 1018.7
20260506100516 44 0.0 0.0 0.00 0.00 0.00 53 1018.5
20260506095516 44 0.0 0.0 0.00 0.00 0.00 52 1018.4
20260506094516 45 0.0 0.0 0.00 0.00 0.00 51 1018.3
20260506093516 45 0.0 0.0 0.00 0.00 0.00 50 1018.3
20260506092516 46 0.0 0.0 0.00 0.00 0.00 49 1018.2
20260506091557 46 0.0 0.0 0.00 0.00 0.00 49 1018.1
20260506090516 46 0.0 0.0 0.00 0.00 0.00 48 1018.1
20260506085516 46 0.0 0.0 0.00 0.00 0.00 47 1017.9
20260506084516 47 0.0 0.0 0.00 0.00 0.00 46 1018.0
20260506083516 47 0.0 0.0 0.00 0.00 0.00 46 1017.9
20260506082516 47 0.0 0.0 0.00 0.00 0.00 46 1017.8
20260506081516 47 0.0 0.0 0.00 0.00 0.00 46 1017.7
20260506080516 47 0.0 0.0 0.00 0.00 0.00 46 1017.7
20260506073517 48 0.0 0.0 0.00 0.00 0.00 44 1017.4
20260506072516 48 0.0 0.0 0.00 0.00 0.00 44 1017.5
20260506071516 48 0.0 0.0 0.00 0.00 0.00 44 1017.5
20260506070516 48 0.0 0.0 0.00 0.00 0.00 44 1017.6
20260506062516 49 0.0 0.0 0.00 0.00 0.00 42 1017.6
20260506061516 49 0.0 0.0 0.00 0.00 0.00 42 1017.6
20260506060516 49 0.0 0.0 0.00 0.00 0.00 42 1017.4
20260506050616 51 0.0 0.0 0.00 0.00 0.00 38 1016.7
20260506044518 51 0.0 0.0 0.00 0.00 0.00 38 1016.5
20260506043516 51 0.0 0.0 0.00 0.01 0.00 38 1016.4
20260506042517 51 0.0 0.0 0.00 0.01 0.00 39 1016.4
20260506041516 51 0.0 0.0 0.00 0.01 0.00 39 1016.2
20260506040516 52 0.0 0.0 0.00 0.01 0.00 39 1016.1
20260506035517 52 0.0 0.0 0.00 0.01 0.00 39 1016.3
20260506034517 52 0.0 0.0 0.00 0.01 0.00 38 1016.2
20260506033516 52 0.0 0.0 0.00 0.01 0.00 38 1016.1
20260506032516 52 0.0 0.0 0.00 0.01 0.00 37 1016.0
20260506031536 52 0.0 0.0 0.00 0.01 0.00 38 1015.8
20260506030516 52 0.0 0.0 0.00 0.01 0.00 37 1015.7
20260506025516 53 0.0 0.0 0.00 0.01 0.00 37 1015.7
20260506024516 53 0.0 0.0 0.00 0.01 0.00 37 1015.4
20260506023536 53 0.0 0.0 0.00 0.01 0.00 37 1015.3
20260506022516 53 0.0 0.0 0.00 0.01 0.00 37 1015.2
20260506021516 53 0.0 0.0 0.00 0.01 0.00 37 1014.9
20260506020516 53 0.0 0.0 0.00 0.01 0.00 37 1014.9
20260506015516 54 0.0 0.0 0.00 0.01 0.00 37 1014.8
20260506014516 54 0.0 0.0 0.00 0.01 0.00 37 1014.8
20260506013516 54 0.0 0.0 0.00 0.01 0.00 37 1014.6
20260506012516 54 0.0 0.0 0.00 0.01 0.00 37 1014.5
20260506011516 54 0.0 0.0 0.00 0.01 0.00 37 1014.4
20260506010516 55 0.0 0.0 0.00 0.01 0.00 36 1014.1
20260506005516 55 0.0 0.0 0.00 0.01 0.00 36 1014.1
20260506004516 55 0.0 0.0 0.00 0.01 0.00 36 1014.1
20260506003516 55 0.0 0.0 0.00 0.01 0.00 36 1013.9
20260506002516 55 0.0 0.0 0.00 0.01 0.00 36 1013.7
20260506001556 55 0.0 0.0 0.00 0.01 0.00 36 1013.7
20260506000537 56 0.0 0.0 0.00 0.01 0.00 35 1013.8
20260505235516 56 0.0 0.0 0.00 0.01 0.00 35 1013.7
20260505234516 57 0.0 0.0 0.00 0.01 0.00 35 1013.6
20260505233536 57 0.0 0.0 0.00 0.01 0.00 35 1013.5
20260505232516 57 0.0 0.0 0.00 0.01 0.00 35 1013.3
20260505231556 57 0.0 0.0 0.00 0.01 0.00 34 1013.3
20260505230516 57 0.0 0.0 0.00 0.01 0.00 35 1013.5
20260505225516 58 0.0 0.0 0.00 0.01 0.00 35 1013.4
20260505224516 58 0.0 0.0 0.00 0.01 0.00 35 1013.4
20260505223516 58 0.0 0.0 0.00 0.01 0.00 36 1013.4
20260505222516 58 0.0 0.0 0.00 0.01 0.00 36 1013.3
20260505221516 58 0.0 0.0 0.00 0.01 0.00 37 1013.3
20260505220516 58 0.0 0.0 0.00 0.01 0.00 38 1013.2
20260505215516 58 0.0 0.0 0.00 0.01 0.00 36 1013.3
20260505214536 58 0.0 0.0 0.00 0.01 0.00 37 1013.4
20260505213516 58 0.0 0.0 0.00 0.01 0.00 36 1013.5
20260505212516 58 0.0 0.0 0.00 0.01 0.00 36 1013.5
20260505211516 59 0.0 0.0 0.00 0.01 0.00 36 1013.6
20260505210516 59 0.0 0.0 0.00 0.01 0.00 35 1013.5
20260505205516 59 0.0 0.0 0.00 0.01 0.00 37 1013.5
20260505204515 59 0.0 0.0 0.00 0.01 0.00 36 1013.6
20260505203516 59 0.0 0.0 0.00 0.01 0.00 37 1013.6
20260505202515 59 0.0 0.0 0.00 0.01 0.00 36 1013.6
20260505201515 59 0.0 0.0 0.00 0.01 0.00 36 1013.8
20260505200515 59 0.0 0.0 0.00 0.01 0.00 37 1013.8
20260505195536 59 0.0 0.0 0.00 0.01 0.00 37 1013.9
20260505194515 59 0.0 0.0 0.00 0.01 0.00 37 1014.0
20260505193515 59 0.0 0.0 0.00 0.01 0.00 37 1014.0
20260505192516 59 0.0 0.0 0.00 0.01 0.00 39 1014.1
20260505191535 58 0.0 0.0 0.00 0.01 0.00 38 1014.1
20260505190516 58 0.0 0.0 0.00 0.01 0.00 38 1014.2
20260505185535 59 0.0 0.0 0.00 0.01 0.00 41 1014.3
20260505184515 60 0.0 0.0 0.00 0.01 0.00 39 1014.4
20260505183515 60 0.0 0.0 0.00 0.01 0.00 40 1014.6
20260505182515 60 0.0 0.0 0.00 0.01 0.00 44 1014.7
20260505181515 59 0.0 0.0 0.00 0.01 0.00 47 1014.7
20260505180515 57 0.0 0.0 0.00 0.01 0.00 45 1014.7
20260505175515 57 0.0 0.0 0.00 0.01 0.00 43 1014.6
20260505174515 57 0.0 0.0 0.00 0.01 0.00 44 1014.6
20260505173515 56 0.0 0.0 0.00 0.01 0.00 45 1014.7
20260505172515 56 0.0 0.0 0.00 0.01 0.00 48 1014.8
20260505171515 56 0.0 0.0 0.00 0.01 0.00 51 1014.9
20260505170535 54 0.0 0.0 0.00 0.01 0.00 48 1014.9
20260505165517 54 0.0 0.0 0.00 0.01 0.00 53 1014.8
20260505164517 54 0.0 0.0 0.00 0.01 0.00 59 1014.8
20260505163537 53 0.0 0.0 0.00 0.01 0.00 59 1014.9
20260505162518 53 0.0 0.0 0.00 0.01 0.00 59 1014.5
20260505161517 52 0.0 0.0 0.00 0.01 0.00 61 1014.5
20260505160518 52 0.0 0.0 0.00 0.01 0.00 59 1014.5
20260505152537 52 0.0 0.0 0.00 0.01 0.00 59 1014.3
20260505151517 51 0.0 0.0 0.00 0.01 0.00 57 1014.1
20260505150519 51 0.0 0.0 0.00 0.01 0.00 57 1013.9
20260505140518 51 0.0 0.0 0.00 0.01 0.00 63 1013.7
20260505124517 49 0.0 0.0 0.00 0.01 0.00 71 1012.9
20260505123517 49 0.0 0.0 0.00 0.01 0.00 74 1012.7
20260505122517 49 0.0 0.0 0.00 0.01 0.00 79 1012.3
20260505121538 49 0.0 0.0 0.00 0.01 0.00 83 1012.3
20260505120517 48 0.0 0.0 0.00 0.01 0.00 84 1012.1
20260505115517 48 0.0 0.0 0.00 0.01 0.00 85 1012.1
20260505114517 48 0.0 0.0 0.00 0.01 0.00 85 1011.8
20260505113517 48 0.0 0.0 0.00 0.01 0.00 84 1011.9
20260505112517 48 0.0 0.0 0.00 0.01 0.00 84 1011.8